�N����,����,�~����,�C��,���x,�C��,����,���ϕ���,�ő�u�ԕ���,�ő厞����,���˗�,�I�_���x,�n�����x,�ő啗���N��,DTYPE
"22/10/11","00:10",0.0,14.7,94.4,1008.3,306.7,1.6,2.0,336.9,0.00,13.9,19.3,"00:02:48",1
"22/10/11","00:20",0.0,14.5,94.2,1008.6,298.3,1.3,1.9,328.8,0.00,13.6,19.1,"00:19:58",1
"22/10/11","00:30",0.0,14.2,93.6,1008.8,290.8,1.6,2.4,271.4,0.00,13.2,19.2,"00:25:48",1
"22/10/11","00:40",0.0,13.8,91.5,1008.8,292.5,1.8,2.8,259.3,0.00,12.5,19.1,"00:37:38",1
"22/10/11","00:50",0.0,14.4,88.4,1009.5,290.4,1.6,2.2,305.1,0.00,12.5,19.0,"00:44:26",1
"22/10/11","01:00",0.0,14.5,84.7,1009.0,273.4,1.2,1.2,273.5,0.00,12.0,18.9,"00:53:32",1
"22/10/11","01:10",0.0,13.9,82.9,1009.3,275.0,1.4,1.4,271.5,0.00,11.1,19.1,"01:07:10",1
"22/10/11","01:20",0.0,13.5,82.6,1009.0,279.6,1.1,1.3,303.1,0.00,10.6,19.0,"01:17:46",1
"22/10/11","01:30",0.0,13.2,83.2,1008.8,292.2,1.3,1.8,307.8,0.00,10.5,19.1,"01:27:36",1
"22/10/11","01:40",0.0,12.9,84.2,1008.8,302.6,1.5,2.2,316.1,0.00,10.3,19.1,"01:32:16",1
"22/10/11","01:50",0.0,12.5,85.5,1009.3,309.2,1.5,2.4,308.6,0.00,10.2,18.7,"01:44:20",1
"22/10/11","02:00",0.0,12.2,86.7,1009.5,298.9,0.7,1.6,348.0,0.00,10.1,18.9,"01:59:58",1
"22/10/11","02:10",0.0,11.9,87.9,1009.0,307.8,1.2,3.5,336.9,0.00,10.0,18.8,"02:02:04",1
"22/10/11","02:20",0.0,11.7,88.9,1009.3,291.5,1.3,2.0,338.6,0.00,10.0,18.7,"02:11:06",1
"22/10/11","02:30",0.0,11.5,89.9,1009.0,306.8,1.5,2.6,256.1,0.00,9.9,18.8,"02:25:24",1
"22/10/11","02:40",0.0,11.3,90.5,1009.3,301.2,1.6,2.4,311.9,0.00,9.8,18.7,"02:36:30",1
"22/10/11","02:50",0.0,11.2,91.1,1009.3,319.1,1.2,2.1,339.2,0.00,9.8,18.7,"02:44:58",1
"22/10/11","03:00",0.0,11.1,91.4,1009.3,320.3,1.2,3.1,314.3,0.00,9.8,18.7,"02:59:00",1
"22/10/11","03:10",0.0,10.8,91.7,1009.0,304.7,1.3,2.0,343.2,0.00,9.5,18.7,"03:01:34",1
"22/10/11","03:20",0.0,10.6,92.2,1009.0,317.4,1.5,2.2,303.5,0.00,9.4,18.6,"03:19:20",1
"22/10/11","03:30",0.0,10.5,92.4,1009.3,317.6,1.5,2.7,342.3,0.00,9.4,18.5,"03:27:28",1
"22/10/11","03:40",0.0,10.4,92.8,1009.0,304.4,1.1,2.1,326.8,0.00,9.3,18.4,"03:35:36",1
"22/10/11","03:50",0.0,10.4,93.2,1009.3,306.1,1.3,2.7,306.5,0.00,9.4,18.5,"03:49:36",1
"22/10/11","04:00",0.0,10.3,93.5,1009.3,288.6,1.3,2.6,258.4,0.00,9.3,18.4,"03:54:00",1
"22/10/11","04:10",0.0,10.3,93.7,1009.7,315.8,1.6,2.6,308.5,0.00,9.4,18.6,"04:07:20",1
"22/10/11","04:20",0.0,10.1,93.9,1009.5,310.7,1.0,2.0,331.1,0.00,9.2,18.3,"04:17:36",1
"22/10/11","04:30",0.0,10.1,94.3,1009.5,324.7,1.3,2.8,299.4,0.00,9.3,18.2,"04:25:36",1
"22/10/11","04:40",0.0,10.2,94.7,1009.5,278.1,1.3,2.6,252.5,0.00,9.4,18.2,"04:38:08",1
"22/10/11","04:50",0.0,10.2,94.8,1009.3,312.1,1.3,2.8,296.8,0.00,9.4,18.2,"04:41:52",1
"22/10/11","05:00",0.0,10.0,94.9,1009.5,318.9,1.3,2.1,314.4,0.00,9.3,18.0,"04:53:20",1
"22/10/11","05:10",0.0,9.7,95.1,1009.7,286.5,1.2,2.1,312.7,0.00,9.0,18.2,"05:03:44",1
"22/10/11","05:20",0.0,9.8,95.4,1010.0,308.6,1.6,2.4,315.3,0.00,9.1,18.0,"05:15:52",1
"22/10/11","05:30",0.0,9.9,95.4,1010.4,315.1,1.5,2.2,338.7,0.00,9.2,18.0,"05:29:12",1
"22/10/11","05:40",0.0,10.0,95.6,1010.7,322.7,1.3,2.4,334.5,0.00,9.4,18.2,"05:38:40",1
"22/10/11","05:50",0.0,9.8,95.6,1010.2,283.5,1.1,2.5,325.0,0.00,9.2,18.0,"05:41:36",1
"22/10/11","06:00",0.0,9.9,95.9,1010.2,300.4,1.2,2.1,327.3,0.00,9.3,17.9,"05:53:36",1
"22/10/11","06:10",0.0,9.9,96.0,1010.9,307.0,1.7,2.2,331.4,0.00,9.3,18.1,"06:02:40",1
"22/10/11","06:20",0.0,10.0,96.1,1010.4,317.6,1.7,2.8,335.2,0.00,9.4,17.7,"06:13:36",1
"22/10/11","06:30",0.0,10.0,96.1,1010.4,289.2,1.1,1.8,264.8,0.00,9.4,17.8,"06:28:56",1
"22/10/11","06:40",0.0,10.0,96.3,1010.7,324.3,1.5,2.1,322.2,0.00,9.5,17.9,"06:33:12",1
"22/10/11","06:50",0.0,9.9,96.4,1011.2,294.0,1.5,2.2,325.8,0.00,9.4,17.7,"06:42:16",1
"22/10/11","07:00",0.0,9.9,96.5,1010.7,296.5,1.3,2.2,325.1,0.00,9.4,17.7,"06:50:02",1
"22/10/11","07:10",0.0,10.0,96.6,1010.7,322.7,1.7,2.6,333.1,0.00,9.5,17.7,"07:01:28",1
"22/10/11","07:20",0.0,10.1,96.7,1011.6,307.3,1.2,2.1,320.2,0.00,9.6,17.7,"07:11:36",1
"22/10/11","07:30",0.0,10.0,96.7,1011.4,289.2,1.0,1.6,307.4,0.00,9.5,17.6,"07:27:44",1
"22/10/11","07:40",0.0,10.3,97.0,1011.6,274.3,1.1,2.5,258.2,0.01,9.9,17.6,"07:38:24",1
"22/10/11","07:50",0.0,11.0,96.8,1011.9,295.5,1.3,1.8,258.7,0.02,10.6,17.5,"07:41:44",1
"22/10/11","08:00",0.0,11.1,96.8,1012.1,317.7,1.7,2.4,331.9,0.02,10.7,17.6,"07:53:52",1
"22/10/11","08:10",0.0,11.1,96.8,1011.9,325.7,1.7,2.5,342.3,0.02,10.7,17.6,"08:04:08",1
"22/10/11","08:20",0.0,11.7,96.9,1012.3,312.2,1.3,2.2,304.3,0.09,11.3,17.4,"08:10:48",1
"22/10/11","08:30",0.0,12.5,96.7,1012.8,292.6,0.8,1.4,318.3,0.08,12.0,17.4,"08:20:08",1
"22/10/11","08:40",0.0,13.4,96.8,1012.8,285.8,0.7,1.4,252.0,0.14,12.9,17.7,"08:30:08",1
"22/10/11","08:50",0.0,13.6,95.4,1012.8,273.3,1.1,1.9,324.3,0.14,12.9,17.4,"08:42:24",1
"22/10/11","09:00",0.0,13.9,94.9,1012.8,281.0,1.5,2.5,221.6,0.14,13.1,17.4,"08:52:40",1
"22/10/11","09:10",0.0,14.6,93.2,1012.8,294.1,1.5,2.6,286.6,0.13,13.6,17.7,"09:01:52",1
"22/10/11","09:20",0.0,14.9,90.7,1012.8,279.8,1.3,2.0,251.6,0.15,13.4,17.5,"09:16:40",1
"22/10/11","09:30",0.0,15.9,85.3,1013.0,262.7,1.2,2.2,253.1,0.14,13.5,17.6,"09:24:24",1
"22/10/11","09:40",0.0,16.6,77.0,1013.5,251.7,1.2,2.0,241.6,0.12,12.6,17.5,"09:34:32",1
"22/10/11","09:50",0.0,17.5,72.9,1013.8,258.5,1.1,2.0,238.4,0.26,12.6,17.5,"09:43:44",1
"22/10/11","10:00",0.0,17.3,67.7,1013.8,253.9,2.0,3.3,241.9,0.19,11.3,17.6,"09:50:56",1
"22/10/11","10:10",0.0,17.3,67.2,1014.0,264.0,1.8,3.7,230.3,0.18,11.2,17.4,"10:03:36",1
"22/10/11","10:20",0.0,17.3,66.1,1013.8,295.3,1.8,3.6,344.2,0.19,11.0,17.6,"10:15:52",1
"22/10/11","10:30",0.0,17.6,64.9,1013.5,268.2,1.6,3.4,254.7,0.27,11.0,17.5,"10:28:24",1
"22/10/11","10:40",0.0,18.2,64.8,1013.5,268.0,1.7,4.1,250.6,0.29,11.5,17.6,"10:31:44",1
"22/10/11","10:50",0.0,18.7,64.1,1013.0,313.0,1.8,4.2,347.4,0.32,11.8,17.6,"10:42:40",1
"22/10/11","11:00",0.0,18.9,62.1,1012.6,299.8,2.0,4.7,251.9,0.35,11.5,17.7,"10:56:32",1
"22/10/11","11:10",0.0,18.4,60.6,1012.8,259.8,2.3,4.5,324.9,0.30,10.7,17.8,"11:04:24",1
"22/10/11","11:20",0.0,18.3,60.6,1012.3,254.2,2.5,5.1,249.4,0.28,10.6,17.7,"11:19:36",1
"22/10/11","11:30",0.0,19.2,60.6,1012.3,254.8,2.3,4.8,252.4,0.50,11.4,17.8,"11:28:32",1
"22/10/11","11:40",0.0,20.1,58.9,1012.1,272.7,2.1,5.5,238.0,0.59,11.9,17.8,"11:38:40",1
"22/10/11","11:50",0.0,20.3,58.1,1012.1,285.4,1.8,3.9,344.4,0.52,11.8,17.9,"11:46:56",1
"22/10/11","12:00",0.0,20.6,56.5,1011.9,265.3,1.7,4.5,333.8,0.54,11.7,17.9,"11:59:52",1
"22/10/11","12:10",0.0,21.0,55.5,1011.9,268.6,1.5,3.4,327.1,0.56,11.8,18.0,"12:00:48",1
"22/10/11","12:20",0.0,20.9,56.4,1012.1,259.2,1.8,4.5,225.8,0.43,12.0,18.0,"12:11:36",1
"22/10/11","12:30",0.0,20.0,56.7,1011.6,246.6,2.0,5.1,223.3,0.22,11.2,18.1,"12:23:12",1
"22/10/11","12:40",0.0,19.7,57.6,1012.1,284.7,1.7,3.7,232.0,0.17,11.1,18.2,"12:33:20",1
"22/10/11","12:50",0.0,19.7,57.6,1011.9,282.8,1.3,2.9,238.5,0.12,11.1,18.2,"12:42:32",1
"22/10/11","13:00",0.0,19.6,58.1,1011.6,287.1,1.8,4.2,347.1,0.12,11.2,18.2,"12:57:52",1
"22/10/11","13:10",0.0,20.2,59.1,1011.9,328.3,1.1,3.3,327.2,0.20,12.0,18.2,"13:09:44",1
"22/10/11","13:20",0.0,20.5,57.7,1011.6,315.6,1.6,2.7,341.0,0.27,11.9,18.2,"13:14:40",1
"22/10/11","13:30",0.0,21.5,54.8,1011.6,278.8,1.5,3.4,244.1,0.48,12.1,18.3,"13:26:32",1
"22/10/11","13:40",0.0,21.6,52.9,1011.4,266.3,1.6,4.2,240.9,0.41,11.6,18.5,"13:32:32",1
"22/10/11","13:50",0.0,20.9,54.4,1011.4,288.4,1.6,4.5,296.5,0.20,11.4,18.5,"13:48:56",1
"22/10/11","14:00",0.0,21.3,56.0,1011.4,268.1,1.7,5.5,236.8,0.37,12.2,18.7,"13:55:04",1
"22/10/11","14:10",0.0,21.8,54.7,1010.9,313.5,1.2,3.2,346.0,0.31,12.3,18.6,"14:07:36",1
"22/10/11","14:20",0.0,22.2,50.3,1010.4,333.1,1.1,3.1,341.4,0.29,11.4,18.7,"14:11:36",1
"22/10/11","14:30",0.0,22.4,52.6,1010.9,316.5,1.2,2.4,331.5,0.37,12.3,18.7,"14:27:20",1
"22/10/11","14:40",0.0,22.7,49.2,1010.9,335.8,2.3,5.0,339.4,0.48,11.5,18.7,"14:37:20",1
"22/10/11","14:50",0.0,21.9,49.7,1010.9,345.9,2.0,4.4,353.0,0.25,11.0,18.8,"14:44:40",1
"22/10/11","15:00",0.0,20.6,53.8,1010.7,2.7,2.0,4.9,352.4,0.10,11.0,18.9,"14:58:56",1
"22/10/11","15:10",0.0,21.7,54.3,1010.7,335.1,2.3,4.2,335.6,0.36,12.1,18.9,"15:03:20",1
"22/10/11","15:20",0.0,22.4,52.3,1010.7,318.3,1.7,3.3,333.0,0.33,12.2,19.0,"15:14:32",1
"22/10/11","15:30",0.0,22.6,49.8,1010.9,314.4,1.6,4.0,340.0,0.24,11.6,19.0,"15:29:52",1
"22/10/11","15:40",0.0,21.4,53.9,1010.9,5.3,2.2,5.4,27.6,0.22,11.7,19.1,"15:35:20",1
"22/10/11","15:50",0.0,20.9,54.2,1010.9,9.2,2.6,6.0,46.4,0.23,11.3,19.1,"15:49:20",1
"22/10/11","16:00",0.0,20.9,55.4,1011.6,4.5,2.3,4.1,10.9,0.21,11.7,19.1,"15:51:36",1
"22/10/11","16:10",0.0,20.2,57.5,1011.6,5.4,2.3,4.9,46.5,0.09,11.6,19.1,"16:06:56",1
"22/10/11","16:20",0.0,21.1,55.6,1011.6,3.6,2.1,4.2,12.1,0.22,11.9,19.3,"16:13:52",1
"22/10/11","16:30",0.0,21.1,56.5,1011.6,348.1,3.0,5.4,349.2,0.19,12.2,19.3,"16:28:08",1
"22/10/11","16:40",0.0,20.6,57.8,1012.1,340.5,2.5,5.9,346.6,0.11,12.0,19.2,"16:36:40",1
"22/10/11","16:50",0.0,19.6,59.9,1011.4,358.7,2.1,5.2,343.1,0.04,11.6,19.3,"16:42:56",1
"22/10/11","17:00",0.0,19.2,62.0,1011.9,351.8,2.3,4.0,349.4,0.04,11.8,19.3,"16:54:08",1
"22/10/11","17:10",0.0,18.8,62.4,1011.9,348.6,2.1,5.0,341.9,0.01,11.5,19.2,"17:06:56",1
"22/10/11","17:20",0.0,18.3,63.6,1012.1,354.5,2.0,4.0,347.8,0.00,11.3,19.4,"17:10:48",1
"22/10/11","17:30",0.0,18.2,64.5,1012.6,345.3,2.1,3.6,347.6,0.00,11.4,19.4,"17:21:04",1
"22/10/11","17:40",0.0,17.7,65.8,1012.1,341.1,2.1,3.5,350.3,0.00,11.3,19.5,"17:36:56",1
"22/10/11","17:50",0.0,17.4,66.6,1012.6,337.2,2.2,4.9,332.5,0.00,11.2,19.4,"17:47:28",1
"22/10/11","18:00",0.0,17.1,68.1,1012.6,339.2,1.8,3.7,346.8,0.00,11.2,19.5,"17:55:44",1
"22/10/11","18:10",0.0,16.5,70.1,1012.8,337.5,1.6,2.4,335.6,0.00,11.1,19.2,"18:01:20",1
"22/10/11","18:20",0.0,16.1,71.7,1013.0,333.5,1.6,2.8,347.6,0.00,11.0,19.4,"18:16:24",1
"22/10/11","18:30",0.0,15.8,73.4,1013.0,330.8,1.6,2.2,307.8,0.00,11.1,19.2,"18:20:16",1
"22/10/11","18:40",0.0,15.5,75.4,1013.8,328.1,1.8,3.1,337.3,0.00,11.2,19.4,"18:37:12",1
"22/10/11","18:50",0.0,15.3,77.2,1013.3,335.3,2.0,3.4,337.1,0.00,11.4,19.2,"18:40:56",1
"22/10/11","19:00",0.0,15.4,77.5,1013.8,333.7,1.7,2.8,327.0,0.00,11.5,19.3,"18:54:08",1
"22/10/11","19:10",0.0,15.2,77.8,1014.0,324.9,1.2,2.0,331.2,0.00,11.4,19.4,"19:00:24",1
"22/10/11","19:20",0.0,15.0,78.7,1014.5,332.6,0.8,1.8,337.4,0.00,11.4,19.2,"19:10:24",1
"22/10/11","19:30",0.0,14.7,79.9,1014.7,326.6,1.0,1.8,338.8,0.00,11.3,19.0,"19:28:24",1
"22/10/11","19:40",0.0,14.5,81.2,1014.7,319.9,1.0,1.7,303.5,0.00,11.4,19.1,"19:39:44",1
"22/10/11","19:50",0.0,14.4,82.3,1014.7,328.6,0.8,1.7,337.7,0.00,11.5,18.9,"19:43:44",1
"22/10/11","20:00",0.0,14.4,83.3,1015.2,291.1,1.0,1.3,323.6,0.00,11.6,18.9,"19:57:52",1
"22/10/11","20:10",0.0,14.3,84.2,1014.9,325.3,1.2,2.0,332.9,0.00,11.7,19.0,"20:08:56",1
"22/10/11","20:20",0.0,14.3,84.9,1015.2,323.0,1.5,3.1,325.1,0.00,11.8,19.1,"20:15:52",1
"22/10/11","20:30",0.0,14.3,85.3,1015.2,326.7,1.6,2.6,330.4,0.00,11.9,19.0,"20:25:20",1
"22/10/11","20:40",0.0,14.3,85.6,1015.2,323.0,1.3,2.1,324.2,0.00,12.0,19.0,"20:38:00",1
"22/10/11","20:50",0.0,14.3,85.9,1015.6,317.2,1.5,2.1,327.7,0.00,12.0,18.8,"20:40:08",1
"22/10/11","21:00",0.0,14.2,86.2,1015.9,307.3,1.5,2.1,330.3,0.00,12.0,18.9,"20:59:44",1
"22/10/11","21:10",0.0,14.1,86.6,1015.6,321.6,1.5,2.4,347.8,0.00,11.9,18.9,"21:08:56",1
"22/10/11","21:20",0.0,14.1,86.9,1015.6,333.0,1.7,2.9,343.9,0.00,12.0,18.7,"21:16:24",1
"22/10/11","21:30",0.0,14.1,87.0,1015.6,332.7,1.8,3.1,325.9,0.00,12.0,18.7,"21:26:24",1
"22/10/11","21:40",0.0,14.3,86.8,1015.9,329.1,2.0,3.2,324.4,0.00,12.2,18.6,"21:31:12",1
"22/10/11","21:50",0.0,14.3,86.7,1015.9,312.5,1.5,2.9,336.9,0.00,12.2,18.7,"21:40:40",1
"22/10/11","22:00",0.0,14.3,86.6,1015.9,318.3,1.6,2.7,340.6,0.00,12.1,18.7,"21:54:00",1
"22/10/11","22:10",0.0,14.3,86.5,1016.1,324.2,1.6,3.1,334.7,0.00,12.1,18.8,"22:00:16",1
"22/10/11","22:20",0.0,14.3,86.5,1015.9,328.2,2.1,4.0,346.3,0.00,12.1,18.7,"22:16:08",1
"22/10/11","22:30",0.0,14.3,86.3,1016.1,330.1,1.8,2.8,318.6,0.00,12.1,18.8,"22:21:44",1
"22/10/11","22:40",0.0,14.3,86.2,1016.1,328.6,2.0,4.1,340.3,0.00,12.1,18.5,"22:37:06",1
"22/10/11","22:50",0.0,14.4,85.9,1015.9,326.6,2.2,3.1,338.5,0.00,12.1,18.5,"22:46:20",1
"22/10/11","23:00",0.0,14.4,85.8,1015.9,335.8,2.1,2.9,332.6,0.00,12.1,18.5,"22:52:40",1
"22/10/11","23:10",0.0,14.4,85.8,1016.1,327.3,2.0,2.9,346.9,0.00,12.1,18.3,"23:03:38",1
"22/10/11","23:20",0.0,14.4,86.0,1016.1,330.7,1.8,2.8,316.5,0.00,12.1,18.7,"23:14:58",1
"22/10/11","23:30",0.0,14.3,86.2,1016.1,323.7,1.6,2.6,332.3,0.00,12.1,18.5,"23:25:08",1
"22/10/11","23:40",0.0,14.3,86.2,1016.1,329.5,1.6,2.8,340.3,0.00,12.1,18.7,"23:34:16",1
"22/10/11","23:50",0.0,14.3,86.2,1015.9,331.9,2.0,3.4,348.5,0.00,12.1,18.3,"23:40:16",1
"22/10/11","24:00",0.0,14.3,86.2,1015.9,329.0,1.3,2.9,334.2,0.00,12.1,18.5,"23:50:24",1
